Regional Weather Roundup
Issued by NWS

Home | Current Version | Previous Version | Text Only | Print | Product List | Glossary Off
Versions: 1 2 3 4 5 6 7 8 9 10 11 12 13 14 15 16 17 18 19 20 21 22 23 24 25 26 27 28 29 30 31 32 33 34 35 36 37 38 39 40 41 42 43 44 45 46 47 48 49 50

000
ASUS44 KMEG 051100
RWRTN
TENNESSEE HOURLY STATE WEATHER ROUNDUP
NATIONAL WEATHER SERVICE MEMPHIS TN
500 AM CST MON DEC 05 2016

TNZ002-004-019-021-049-052-054-088>092-051200-
WEST TENNESSEE

CITY           SKY/WX    TMP DP  RH WIND       PRES   REMARKS
MEMPHIS INTL   CLOUDY    43  39  86 NE9       30.01F
NWS MEMPHIS      N/A     42 N/A N/A MISG        N/A
JACKSON        CLOUDY    42  39  89 NE7       30.05S
DYERSBURG      CLOUDY   N/A N/A N/A E6        30.05R
PARIS          CLOUDY    37  34  87 NE6       30.04F WCI  33
$$

TNZ008-025-027-028-033-062-065-066-051200-
NORTH MIDDLE TENNESSEE

CITY           SKY/WX    TMP DP  RH WIND       PRES   REMARKS
NASHVILLE      MOCLDY    44  40  85 N6        30.06R
CLARKSVILLE    CLOUDY    40  35  83 N10       30.06F WCI  33
SMYRNA         CLOUDY    44  42  93 N9        30.05F
CROSSVILLE     CLOUDY    44  42  93 N6        30.01S FOG
$$

TNZ061-075-076-078-094-096-097-051200-
SOUTH MIDDLE TENNESSEE

CITY           SKY/WX    TMP DP  RH WIND       PRES   REMARKS
TULLAHOMA      CLOUDY    43  43 100 N5        30.01S
WINCHESTER     CLOUDY    46  45  93 NE7       30.02S
SHELBYVILLE    CLOUDY    46  45  93 N7        30.03S
$$

TNZ017-018-042-046-047-051200-
NORTHEAST TENNESSEE

CITY           SKY/WX    TMP DP  RH WIND       PRES   REMARKS
TRI CITIES     CLOUDY    46  45  96 CALM      30.02F FOG
$$

TNZ012-013-036-069-073-074-051200-
CENTRAL EAST TENNESSEE

CITY           SKY/WX    TMP DP  RH WIND       PRES   REMARKS
KNOXVILLE      DRIZZLE   46  44  93 SE3       30.02S FOG
OAK RIDGE      CLOUDY    48  45  89 CALM      30.03S
GATLINBURG     CLOUDY    45  45 100 CALM      30.03R
$$

TNZ083-085-099-051200-
SOUTHEAST TENNESSEE

CITY           SKY/WX    TMP DP  RH WIND       PRES   REMARKS
CHATTANOOGA    CLOUDY    47  44  90 NW3       30.02S FOG
$$

SKY/WX REPORTED AS FAIR MEANS FEW OR NO CLOUDS BELOW
12 THOUSAND FEET.





USA.gov is the U.S. government's official web portal to all federal, state and local government web resources and services.